Torna al catalogo

POEM 2

AttivoScienzaVLEO
NORAD 56308·PAYLOAD·🇮🇳 India

Lanciato Apr 22, 2023 da Satish Dhawan Space Centre

Loading…

Prossimi Passaggi (prossime 24 ore)

TLE

AggiornatoSource: Space-Track

Epoca: Sep 13, 2026, 18:56 UTC

1 56308U 23057A   26256.78928821  .00001837  00000-0  10025-3 0  9995
2 56308   9.8893 337.9247 0020017 113.4349 246.7968 14.95188292185545

Traccia POEM 2 in tempo reale con AllMySat

Download on the App Store